Weather History for Athens, OH

Change the Weather History Date:

Tuesday, February 18, 2014

  Actual Average (KPKB) Record (KPKB)
Temperature  
Mean Temperature 40 °F 35 °F  
Max Temperature 51 °F 45 °F 70 °F (1981)
Min Temperature 30 °F 26 °F -2 °F (1936)
Degree Days  
Heating Degree Days 24 30  
Month to date heating degree days 564  
Since 1 July heating degree days 3509  
Cooling Degree Days 0 0  
Month to date cooling degree days 0  
Year to date cooling degree days 0  
Moisture  
Dew Point 26 °F    
Average Humidity 61    
Maximum Humidity 85    
Minimum Humidity 30    
Precipitation  
Precipitation 0.00 in 0.10 in 0.22 in (2000)
Month to date precipitation 1.71  
Year to date precipitation 4.66  
Sea Level Pressure  
Sea Level Pressure 30.00 in    
Wind  
Wind Speed 12 mph (SW)    
Max Wind Speed 23 mph    
Max Gust Speed 36 mph    
Visibility 10 miles    
Events      
T = Trace of Precipitation, MM = Missing Value Source: NWS Daily Summary

Daily Weather History Graph

Daily Weather History Graph

Search for Another Location

Airport:

Trip Planner

Search our weather history database for the weather conditions in past years. The results will help you decide how hot, cold, wet, or windy it might be!

Date:

Astronomy

Feb. 18, 2014 Rise Set
Actual Time 7:16 AM EST 6:09 PM EST
Civil Twilight 6:49 AM EST 6:36 PM EST
Nautical Twilight 6:18 AM EST 7:07 PM EST
Astronomical Twilight 5:47 AM EST 7:38 PM EST
Moon 9:59 PM EST (2/18) 8:50 AM EST (2/18)
Length of Visible Light 11h 47m
Length of Day
10h 52m
Waning Gibbous, 87% of the Moon is Illuminated
Feb 18
Waning Gibbous
Feb 22
Last Quarter
Mar 1
New
Mar 8
First Quarter
Mar 16
Full

Hourly Weather History & Observations

Time (EST) Temp. Windchill Dew Point Humidity Pressure Visibility Wind Dir Wind Speed Gust Speed Precip Events Conditions
12:15 AM 38.1 °F 28.8 °F 30.2 °F 73% 29.91 in 10.0 mi WSW 17.3 mph 29.9 mph N/A   Mostly Cloudy
12:35 AM 37.6 °F 27.1 °F 30.0 °F 74% 29.91 in 10.0 mi WSW 20.7 mph 28.8 mph N/A   Overcast
12:55 AM 37.0 °F 25.9 °F 29.7 °F 75% 29.93 in 10.0 mi WSW 23.0 mph 28.8 mph N/A   Overcast
1:15 AM 37.0 °F 27.4 °F 29.3 °F 74% 29.94 in 10.0 mi WSW 17.3 mph 35.7 mph N/A   Overcast
1:35 AM 37.0 °F 27.4 °F 29.3 °F 74% 29.94 in 10.0 mi SW 17.3 mph 25.3 mph N/A   Overcast
1:55 AM 36.7 °F 28.0 °F 29.3 °F 75% 29.94 in 10.0 mi SW 13.8 mph 19.6 mph N/A   Overcast
2:15 AM 36.9 °F 26.5 °F 29.1 °F 74% 29.94 in 10.0 mi SW 19.6 mph 27.6 mph N/A   Overcast
2:35 AM 37.0 °F 28.5 °F 29.1 °F 73% 29.92 in 10.0 mi SSW 13.8 mph 21.9 mph N/A   Scattered Clouds
2:55 AM 36.7 °F 28.9 °F 29.3 °F 75% 29.93 in 10.0 mi SW 11.5 mph 18.4 mph N/A   Scattered Clouds
3:15 AM 37.2 °F 30.0 °F 29.3 °F 73% 29.94 in 10.0 mi SW 10.4 mph 20.7 mph N/A   Mostly Cloudy
3:35 AM 37.4 °F 28.9 °F 28.9 °F 71% 29.94 in 10.0 mi SW 13.8 mph 25.3 mph N/A   Scattered Clouds
3:55 AM 37.0 °F 29.8 °F 28.9 °F 73% 29.95 in 10.0 mi SW 10.4 mph - N/A   Scattered Clouds
4:15 AM 37.0 °F 30.4 °F 28.9 °F 73% 29.96 in 10.0 mi SW 9.2 mph 17.3 mph N/A   Mostly Cloudy
4:35 AM 37.4 °F 27.8 °F 28.6 °F 70% 29.96 in 10.0 mi SW 17.3 mph 23.0 mph N/A   Mostly Cloudy
4:55 AM 37.4 °F 28.5 °F 28.4 °F 70% 29.97 in 10.0 mi SW 15.0 mph 20.7 mph N/A   Scattered Clouds
5:15 AM 38.3 °F 27.8 °F 28.4 °F 68% 29.97 in 10.0 mi WSW 21.9 mph 31.1 mph N/A   Scattered Clouds
5:35 AM 37.6 °F 27.4 °F 28.4 °F 69% 29.98 in 10.0 mi SW 19.6 mph 23.0 mph N/A   Scattered Clouds
5:55 AM 37.6 °F 28.1 °F 28.2 °F 69% 29.99 in 10.0 mi WSW 17.3 mph 24.2 mph N/A   Clear
6:15 AM 37.4 °F 27.5 °F 28.2 °F 69% 30.00 in 10.0 mi WSW 18.4 mph 24.2 mph N/A   Clear
6:35 AM 36.9 °F 27.1 °F 28.2 °F 71% 30.01 in 10.0 mi WSW 17.3 mph 21.9 mph N/A   Clear
6:55 AM 37.0 °F 27.7 °F 28.2 °F 70% 30.02 in 10.0 mi WSW 16.1 mph 25.3 mph N/A   Clear
7:15 AM 37.0 °F 27.4 °F 28.0 °F 70% 30.04 in 10.0 mi WSW 17.3 mph 24.2 mph N/A   Scattered Clouds
7:35 AM 36.9 °F 27.8 °F 28.4 °F 71% 30.05 in 10.0 mi WSW 15.0 mph - N/A   Overcast
7:55 AM 37.0 °F 28.5 °F 28.4 °F 71% 30.07 in 10.0 mi WSW 13.8 mph - N/A   Overcast
8:15 AM 37.0 °F 29.8 °F 28.2 °F 70% 30.08 in 10.0 mi WSW 10.4 mph - N/A   Overcast
8:35 AM 37.6 °F 31.0 °F 27.9 °F 68% 30.08 in 10.0 mi SW 9.2 mph - N/A   Mostly Cloudy
8:55 AM 39.2 °F 32.5 °F 27.7 °F 63% 30.09 in 10.0 mi WSW 10.4 mph 17.3 mph N/A   Scattered Clouds
9:15 AM 39.2 °F 30.8 °F 28.0 °F 64% 30.10 in 10.0 mi West 15.0 mph 23.0 mph N/A   Scattered Clouds
9:35 AM 40.1 °F 32.0 °F 27.5 °F 61% 30.11 in 10.0 mi WSW 15.0 mph 21.9 mph N/A   Clear
9:55 AM 40.5 °F 32.8 °F 27.9 °F 61% 30.12 in 10.0 mi West 13.8 mph 23.0 mph N/A   Clear
10:15 AM 41.0 °F 34.3 °F 27.3 °F 58% 30.12 in 10.0 mi WSW 11.5 mph 17.3 mph N/A   Clear
10:35 AM 41.5 °F 35.9 °F 27.3 °F 57% 30.12 in 10.0 mi WSW 9.2 mph 24.2 mph N/A   Clear
10:55 AM 42.4 °F 35.7 °F 26.6 °F 54% 30.12 in 10.0 mi SW 12.7 mph 19.6 mph N/A   Clear
11:15 AM 43.0 °F 37.2 °F 26.8 °F 53% 30.13 in 10.0 mi SW 10.4 mph 16.1 mph N/A   Clear
11:35 AM 43.3 °F 37.7 °F 26.6 °F 52% 30.13 in 10.0 mi WSW 10.4 mph - N/A   Clear
11:55 AM 44.1 °F 39.5 °F 26.4 °F 50% 30.13 in 10.0 mi SW 8.1 mph - N/A   Clear
12:15 PM 45.0 °F 39.7 °F 26.2 °F 48% 30.13 in 10.0 mi WSW 10.4 mph - N/A   Clear
12:35 PM 45.5 °F 41.3 °F 25.9 °F 46% 30.12 in 10.0 mi WSW 8.1 mph - N/A   Clear
12:55 PM 45.7 °F 39.8 °F 24.8 °F 44% 30.11 in 10.0 mi WSW 12.7 mph - N/A   Clear
1:15 PM 47.1 °F - 23.9 °F 40% 30.10 in 10.0 mi SW 6.9 mph - N/A   Clear
1:35 PM 47.3 °F - 22.6 °F 38% 30.09 in 10.0 mi SW 8.1 mph - N/A   Clear
1:55 PM 48.2 °F - 22.5 °F 36% 30.08 in 10.0 mi WSW 8.1 mph - N/A   Clear
2:15 PM 49.3 °F - 22.1 °F 34% 30.07 in 10.0 mi South 5.8 mph - N/A   Clear
2:35 PM 49.5 °F - 21.6 °F 33% 30.06 in 10.0 mi WSW 9.2 mph - N/A   Clear
2:55 PM 50.4 °F - 20.3 °F 31% 30.06 in 10.0 mi SW 10.4 mph - N/A   Clear
3:15 PM 50.4 °F - 19.8 °F 30% 30.05 in 10.0 mi WSW 6.9 mph - N/A   Clear
3:35 PM 49.8 °F - 21.2 °F 32% 30.04 in 10.0 mi SW 5.8 mph - N/A   Clear
3:55 PM 50.7 °F - 20.1 °F 30% 30.04 in 10.0 mi South 4.6 mph - N/A   Clear
4:15 PM 50.9 °F - 21.2 °F 31% 30.03 in 10.0 mi South 3.5 mph - N/A   Clear
4:35 PM 51.1 °F - 21.0 °F 31% 30.02 in 10.0 mi South 3.5 mph - N/A   Clear
4:55 PM 49.8 °F - 21.6 °F 33% 30.01 in 10.0 mi SSE 4.6 mph - N/A   Clear
5:15 PM 49.1 °F - 21.7 °F 34% 30.00 in 10.0 mi SSE 4.6 mph - N/A   Clear
5:35 PM 47.8 °F - 22.5 °F 37% 30.00 in 10.0 mi SE 3.5 mph - N/A   Clear
5:55 PM 47.7 °F - 21.9 °F 36% 29.98 in 10.0 mi Calm Calm - N/A   Clear
6:15 PM 46.0 °F - 23.2 °F 41% 29.97 in 10.0 mi Calm Calm - N/A   Clear
6:35 PM 44.1 °F 42.5 °F 25.3 °F 48% 29.97 in 10.0 mi SE 3.5 mph - N/A   Clear
6:55 PM 41.4 °F - 26.1 °F 55% 29.96 in 10.0 mi Calm Calm - N/A   Clear
7:15 PM 40.1 °F - 27.0 °F 59% 29.96 in 10.0 mi Calm Calm - N/A   Clear
7:35 PM 38.5 °F - 26.6 °F 62% 29.95 in 10.0 mi Calm Calm - N/A   Clear
7:55 PM 37.2 °F - 26.8 °F 66% 29.94 in 10.0 mi Calm Calm - N/A   Clear
8:15 PM 35.1 °F - 26.4 °F 71% 29.94 in 10.0 mi Calm Calm - N/A   Clear
8:35 PM 35.1 °F - 26.4 °F 71% 29.93 in 10.0 mi Calm Calm - N/A   Clear
8:55 PM 33.8 °F - 26.6 °F 75% 29.93 in 10.0 mi Calm Calm - N/A   Clear
9:15 PM 33.1 °F - 27.0 °F 78% 29.93 in 10.0 mi Calm Calm - N/A   Clear
9:35 PM 32.0 °F - 27.0 °F 82% 29.93 in 10.0 mi Calm Calm - N/A   Clear
9:55 PM 32.0 °F - 26.6 °F 80% 29.92 in 10.0 mi Calm Calm - N/A   Clear
10:15 PM 31.1 °F - 26.2 °F 82% 29.91 in 10.0 mi Calm Calm - N/A   Clear
10:35 PM 30.2 °F - 26.2 °F 85% 29.90 in 10.0 mi Calm Calm - N/A   Clear
10:55 PM 30.9 °F - 26.2 °F 83% 29.89 in 10.0 mi Calm Calm - N/A   Clear
11:15 PM 30.4 °F - 25.7 °F 83% 29.88 in 10.0 mi Calm Calm - N/A   Clear
11:35 PM 30.2 °F - 25.3 °F 82% 29.87 in 10.0 mi Calm Calm - N/A   Clear
11:55 PM 31.1 °F - 25.5 °F 80% 29.87 in 10.0 mi Calm Calm - N/A   Clear